GFSNE_con_lsi_000.txt.gz
Lid_Strength_Index
1 1 1 1 1 1 1 2 4 6 5 3 3 0 0 -0 -0 0 0 2 1 2 2 2 1 1 1 1 1 1 -0 -1 -2 -2 -2 -2 -2 -2
1 1 1 1 1 1 1 1 2 3 5 2 2 1 0 0 -0 1 1 1 2 2 2 2 2 2 2 2 1 0 -1 -1 -1 -1 -1 -2 -1 -2
1 1 1 1 1 1 1 1 2 2 4 3 1 0 1 1 1 1 1 1 1 3 2 3 3 3 3 2 1 0 0 -0 -0 -0 -0 0 0 -0
1 1 2 1 1 1 1 2 2 1 3 4 2 2 1 1 2 2 1 1 2 3 3 3 4 4 2 2 2 2 2 2 2 3 3 2 1 1
1 1 1 1 2 1 1 2 1 1 2 2 3 2 2 2 3 2 3 3 3 2 3 4 3 2 2 2 3 3 4 5 5 5 5 4 4 4
2 1 1 1 1 1 1 2 1 2 2 2 3 4 3 3 2 3 3 2 3 3 2 2 2 3 3 3 3 3 4 5 6 6 6 6 6 5
1 1 1 1 2 2 1 1 1 2 2 3 3 4 4 3 3 3 3 3 3 1 1 3 3 3 3 4 3 3 5 6 6 6 6 6 7 7
2 1 1 3 4 4 4 4 2 2 3 2 3 3 3 3 4 3 3 2 3 1 1 4 3 3 3 3 5 6 6 6 6 6 7 7 8 9
2 1 1 1 1 2 5 5 5 5 4 2 2 2 3 3 3 3 2 2 2 2 2 4 3 4 4 5 7 7 6 7 7 7 7 8 9 9
1 1 1 1 2 1 1 1 1 1 2 2 1 1 1 2 1 0 1 1 2 3 2 3 4 4 4 3 6 6 7 7 7 8 8 9 9 9
1 1 1 1 8 6 1 2 4 4 8 7 7 7 7 7 4 1 1 2 3 3 3 3 4 4 4 4 5 6 7 7 8 8 8 9 9 9
2 2 5 3 10 8 3 4 4 5 5 7 6 7 6 6 7 0 1 2 5 4 3 3 4 4 5 4 5 6 6 8 9 9 9 9 9 7
2 2 2 8 10 10 8 3 4 5 8 7 7 6 5 5 4 2 2 3 4 4 3 3 4 4 5 6 6 7 7 8 8 8 9 9 9 8
3 3 4 10 11 11 8 8 10 7 3 3 3 3 3 3 4 4 3 3 3 3 3 3 4 5 6 8 8 8 9 8 8 8 8 8 8 8
3 5 10 12 12 11 11 10 9 3 2 2 3 3 3 4 5 5 5 5 6 6 5 4 5 7 7 9 10 11 11 9 9 8 8 8 7 7
7 7 8 8 9 7 7 7 5 3 2 2 3 4 5 5 6 6 6 6 7 8 7 6 7 7 9 10 11 11 11 11 9 9 8 7 8 7
7 6 6 6 6 6 6 6 5 3 3 4 4 5 5 5 7 6 6 7 8 8 8 8 8 8 8 9 11 12 11 10 9 9 9 9 8 7
6 6 6 5 5 6 6 7 5 4 3 4 4 5 5 5 7 6 6 8 9 9 10 10 10 10 11 10 10 12 11 11 10 9 9 10 10 8
4 6 5 5 5 5 5 6 6 3 4 4 4 5 5 6 7 7 8 9 9 10 11 10 11 12 13 14 11 11 12 11 11 11 10 10 10 9
4 4 6 6 6 6 6 5 4 4 4 5 5 5 5 6 7 8 9 10 11 11 11 11 11 11 13 12 11 11 13 12 12 11 11 10 9 9
6 5 5 6 7 8 7 7 5 5 5 5 6 7 7 7 8 9 10 12 12 11 11 11 11 14 11 11 13 13 12 12 11 11 10 10 11 10
6 6 6 6 7 8 8 7 7 7 7 7 8 8 8 8 9 9 10 10 10 10 10 11 11 12 13 14 14 15 13 12 11 10 10 10 10 12
6 6 6 5 6 6 7 8 7 7 7 7 8 8 9 9 9 10 10 11 11 11 12 14 14 14 14 15 15 14 14 13 12 11 10 9 9 8

GFSNE_con_lsi_003.txt.gz
Lid_Strength_Index
1 1 1 0 0 -1 0 1 3 6 5 3 3 0 -0 -0 0 0 0 2 1 2 2 2 2 2 1 1 1 0 0 -1 -2 -2 -2 -2 -2 -2
0 1 1 0 0 0 1 1 2 3 5 3 2 1 0 -0 -0 0 0 1 2 2 1 2 2 2 2 2 1 -0 -1 -1 -1 -1 -2 -1 -1 -1
0 1 1 0 1 1 0 1 2 2 4 3 1 1 1 1 1 1 -0 0 1 2 2 2 3 3 2 1 1 0 -0 -0 -0 0 0 1 2 1
1 1 1 1 1 1 1 1 1 1 3 4 2 1 2 1 1 1 1 1 0 2 2 3 3 3 2 1 0 1 2 2 3 3 4 3 3 3
1 1 1 1 1 1 1 1 1 1 1 2 3 2 2 1 1 1 1 1 1 2 3 3 3 2 2 2 2 3 4 5 5 5 4 4 4 3
1 1 1 1 1 1 1 1 1 2 2 2 2 3 3 2 2 3 3 1 2 1 3 2 2 3 2 2 2 4 5 6 6 6 6 6 6 5
0 0 0 1 2 2 1 1 1 2 2 3 3 3 4 3 3 1 2 2 1 1 0 -1 -1 1 3 4 3 4 6 6 6 6 6 7 7 7
1 0 0 1 4 5 5 4 2 2 2 3 3 4 3 2 1 2 2 2 3 -1 -0 3 2 3 3 3 6 6 6 6 6 6 7 7 8 9
0 1 1 0 0 0 5 5 5 6 4 1 2 2 2 1 1 1 1 1 1 -0 2 3 2 3 3 4 6 6 7 7 7 7 8 8 9 10
0 0 0 0 0 0 0 1 1 1 -0 -0 -0 -0 -0 -1 -0 -0 -0 0 -0 -0 -1 3 2 3 3 4 6 7 7 8 8 8 8 9 9 10
0 -0 0 0 8 6 1 1 1 1 7 9 8 7 7 6 2 -0 1 1 2 1 -1 1 2 3 3 4 5 7 8 8 8 8 8 9 9 9
1 1 5 2 10 7 0 1 1 1 0 -0 -0 2 2 4 5 -1 0 2 2 2 0 2 2 3 4 3 4 4 5 8 8 9 9 9 10 6
1 1 0 10 10 9 7 0 1 1 3 0 0 1 -0 -0 -1 -1 -1 -0 1 1 1 1 3 3 3 4 4 6 5 6 6 6 9 9 9 9
1 1 1 9 10 10 5 11 10 6 1 1 1 1 1 1 1 -0 -0 -0 -1 -1 1 1 4 4 5 6 6 6 6 5 6 6 6 8 8 8
0 4 10 11 11 8 10 11 9 1 0 1 1 1 0 0 0 1 1 2 3 3 3 2 4 4 5 6 8 8 8 6 6 7 7 7 7 7
7 5 7 7 9 6 5 4 -0 -0 0 1 1 0 1 1 1 2 3 5 6 6 5 4 3 5 7 8 8 9 8 8 7 7 7 7 7 6
3 2 1 1 1 1 1 0 0 1 0 0 1 1 1 1 2 2 3 4 5 6 7 6 5 5 6 7 8 9 8 8 8 8 8 8 7 7
2 1 1 1 1 1 1 1 0 3 0 0 0 0 1 2 2 2 2 3 5 6 7 8 8 9 8 8 9 9 8 9 9 8 8 9 8 7
1 1 1 1 1 1 1 1 1 1 -0 0 0 0 1 1 3 3 4 4 6 8 8 8 9 9 10 10 8 12 10 10 10 9 8 9 8 8
1 1 1 1 1 1 1 2 2 2 0 0 0 1 1 3 4 5 6 7 9 10 9 9 10 10 9 9 9 10 14 11 10 10 9 8 7 9
2 2 1 1 1 1 1 1 1 2 2 2 2 2 3 4 4 5 6 11 10 10 10 10 10 14 9 9 10 11 11 13 12 11 11 10 9 7
1 2 2 2 1 1 1 2 2 3 3 3 2 3 3 3 4 6 8 10 10 10 11 10 10 10 11 12 12 12 12 12 12 12 11 11 9 10
1 1 1 2 2 2 2 3 3 2 2 2 3 3 4 4 5 8 9 9 10 10 10 11 11 11 12 13 13 12 13 13 11 10 9 10 10 9

GFSNE_con_lsi_006.txt.gz
Lid_Strength_Index
-0 -0 -0 -0 -0 -1 -0 1 3 5 5 3 3 1 1 1 1 1 2 3 2 3 3 2 2 1 1 1 1 0 0 -1 -2 -1 -1 -1 -1 -2
0 1 0 0 -0 -1 0 0 1 3 5 3 2 1 1 1 1 2 1 2 2 2 2 2 3 2 2 2 1 1 -0 -1 -2 -2 -1 -1 -1 -0
0 1 0 -0 0 0 0 0 1 2 4 3 2 1 1 1 1 1 0 1 1 2 2 2 3 3 2 2 1 -0 -1 -1 0 1 1 1 2 2
1 1 1 1 0 0 1 1 1 1 3 4 2 2 2 1 1 1 0 0 -0 2 2 3 4 3 3 2 1 1 2 2 2 2 3 3 2 3
1 1 1 1 1 1 1 1 2 1 2 3 3 2 1 1 2 0 0 -0 1 2 3 4 4 4 3 2 2 3 4 4 5 4 4 3 3 4
0 0 0 1 1 1 1 1 1 2 2 2 3 3 2 1 1 2 2 2 2 2 3 3 3 3 2 2 3 4 6 6 6 6 6 6 6 6
1 1 1 1 3 1 1 1 1 2 2 3 3 3 3 3 2 1 3 3 1 2 2 1 0 1 2 4 4 4 5 6 7 6 6 7 7 8
1 1 0 1 4 5 5 5 1 1 2 3 4 4 3 2 2 2 2 3 3 -1 -0 0 0 2 2 2 5 6 6 6 6 7 7 8 8 9
0 0 1 0 1 1 5 5 5 6 3 1 3 3 2 1 0 1 1 1 1 -0 -0 2 1 2 3 4 6 6 6 7 7 7 8 9 9 10
0 0 0 1 0 0 1 1 1 1 -0 1 1 1 -0 -0 -1 -1 -0 -0 -0 -1 -1 2 1 2 2 4 6 7 7 7 8 8 8 9 9 9
0 0 0 0 8 7 0 1 1 2 7 7 5 6 6 5 2 -0 1 1 2 1 -1 0 0 2 3 4 5 7 7 8 8 8 9 9 9 10
0 -0 7 1 9 7 0 1 1 1 0 0 -0 3 2 2 4 -2 -0 1 2 2 -0 1 1 2 3 2 3 4 5 8 8 8 9 9 10 7
1 1 0 10 9 8 6 -0 1 0 1 0 0 0 -0 -1 -1 -1 -2 -0 1 1 -0 -0 1 2 1 2 3 4 4 5 4 6 9 9 9 10
1 1 2 11 10 9 6 10 8 4 -0 0 1 1 0 0 -1 -1 -2 -2 -2 -1 -1 -2 0 0 3 4 4 5 5 4 4 4 5 7 8 9
-0 5 10 10 10 7 11 11 9 0 0 1 1 1 0 -1 -1 -1 -2 -1 -1 -1 -0 0 1 2 3 5 7 7 6 5 4 5 6 6 6 6
6 2 4 5 9 4 3 4 -0 -0 0 1 0 -0 -1 -0 -0 -0 1 1 3 4 3 2 2 3 5 6 7 7 6 6 5 5 6 6 6 6
1 0 1 1 1 1 0 -0 -0 -0 0 -0 0 0 0 0 0 -0 0 1 3 5 6 5 3 4 5 5 8 7 6 6 7 7 7 7 6 6
1 1 1 1 1 1 1 1 0 1 0 0 0 0 1 1 1 0 0 1 3 4 6 7 7 8 8 8 10 8 7 8 8 7 7 8 8 7
1 1 1 1 1 1 1 1 1 0 -1 -0 0 0 0 0 1 1 2 2 3 4 6 6 8 8 10 10 8 12 9 8 9 9 8 8 8 7
1 1 1 1 1 1 1 1 1 0 0 0 0 0 0 1 2 2 2 3 4 6 8 8 9 9 9 9 8 10 14 11 10 9 9 8 8 10
1 1 0 0 0 0 1 1 1 1 0 0 0 0 0 1 2 2 2 7 8 7 9 9 11 13 8 9 10 11 11 13 11 10 10 11 10 9
0 0 0 0 0 0 0 0 0 1 1 0 0 0 0 1 2 2 3 6 7 8 9 9 10 10 10 11 10 11 10 9 11 12 13 14 12 11
0 0 0 0 1 0 -0 0 1 1 1 1 1 0 1 1 1 2 4 6 6 7 8 10 11 11 11 11 12 10 11 10 9 9 9 12 12 12

GFSNE_con_lsi_009.txt.gz
Lid_Strength_Index
-0 0 0 -0 1 0 0 1 2 6 6 3 3 1 2 1 1 1 2 2 2 3 3 3 2 2 1 1 0 0 -0 -0 -1 -2 -1 -1 -1 -2
0 0 0 0 -0 -0 0 0 1 3 5 2 2 2 2 1 1 2 2 2 3 3 3 3 3 2 2 2 1 1 -0 0 -2 -2 -1 -1 -0 -0
1 1 1 0 0 0 1 1 2 2 4 3 2 1 2 2 2 2 2 2 2 3 3 3 3 3 2 2 1 1 1 -0 -1 -0 0 1 1 2
1 1 1 1 1 1 1 1 2 1 3 4 3 2 2 2 2 1 1 1 1 2 3 3 3 3 3 3 3 3 2 1 1 2 2 2 2 3
1 1 1 1 1 1 1 2 1 1 2 3 3 2 2 2 2 1 1 1 -0 2 3 4 4 4 4 4 3 3 4 4 5 4 4 3 4 4
1 0 1 1 1 1 1 1 2 2 2 3 3 3 2 2 2 2 3 1 1 1 2 3 3 5 4 2 3 4 6 6 6 6 6 6 6 6
1 1 0 2 3 1 1 1 2 2 2 3 3 3 3 3 3 3 3 2 2 1 2 2 2 2 4 3 4 5 6 6 6 6 6 7 7 8
1 1 1 1 4 5 4 3 2 2 3 3 3 4 3 2 2 4 4 4 4 1 2 1 -0 1 3 3 6 6 6 6 6 7 7 7 8 8
1 1 1 1 2 1 6 6 5 6 4 2 3 3 3 1 2 2 1 2 2 0 0 1 -0 2 3 5 6 7 7 7 7 7 7 8 9 9
0 0 1 1 1 1 1 1 1 1 2 2 2 2 1 1 0 0 0 0 0 -0 -1 2 1 3 3 4 6 7 7 7 7 7 8 9 9 8
0 0 0 1 7 6 1 1 2 3 5 6 5 6 6 5 2 -0 1 2 2 1 -0 1 1 2 4 5 6 7 7 7 8 8 9 9 9 10
1 0 7 2 8 7 1 1 3 2 2 2 1 5 3 2 5 -1 0 2 2 2 0 1 1 2 4 4 5 6 6 7 8 9 9 9 10 6
1 1 1 10 9 7 4 1 1 1 2 1 0 0 -0 -0 -1 -1 -1 0 2 2 0 -0 1 1 1 3 3 3 3 6 6 8 9 9 10 10
1 1 3 10 10 7 4 9 8 4 0 1 1 1 1 0 -0 -1 -3 -1 -2 -1 -1 -2 1 1 1 2 4 4 5 4 5 5 5 7 9 9
0 5 10 11 11 8 10 9 7 0 1 1 1 1 0 -0 -1 -1 -1 -1 -1 -1 -1 -2 -1 -0 1 3 5 6 6 5 5 5 5 6 6 6
6 2 3 5 8 4 5 5 0 0 1 1 1 0 -0 0 0 -0 0 0 1 2 1 1 1 1 3 5 5 7 6 7 5 5 6 6 6 6
1 0 1 1 1 1 1 0 0 0 1 0 1 1 1 1 1 -0 0 0 2 4 5 4 3 3 5 5 7 7 7 7 6 6 7 7 6 6
1 1 2 1 1 1 1 1 0 1 0 0 0 1 1 1 1 0 0 1 2 4 6 5 5 7 7 7 9 7 7 7 8 7 7 8 8 6
1 1 1 1 1 1 1 1 1 0 -0 0 0 0 0 1 1 1 1 2 2 3 5 6 7 8 10 10 10 12 8 8 9 8 8 8 9 7
1 1 1 1 1 1 1 1 1 0 0 0 0 1 0 1 1 2 2 1 2 3 4 6 7 6 7 7 9 11 14 9 10 9 9 8 8 9
1 1 1 1 1 1 1 0 0 0 1 0 1 0 1 1 1 1 1 6 5 3 5 7 7 13 7 8 10 11 11 13 11 10 10 11 9 8
1 1 0 0 0 0 0 0 0 1 0 1 1 0 0 1 1 1 1 1 2 4 7 7 7 7 8 11 11 10 11 10 12 12 12 12 11 11
1 0 0 0 0 0 0 0 0 0 0 0 0 1 0 1 1 0 1 1 3 5 7 10 10 10 11 11 11 10 10 10 9 11 10 12 11 10

GFSNE_con_lsi_015.txt.gz
Lid_Strength_Index
2 3 2 2 2 2 3 3 4 6 6 3 4 2 0 0 1 1 2 2 2 3 3 2 2 1 2 1 1 1 0 0 -0 -0 -2 -2 -2 -2
2 2 2 2 2 2 2 2 2 4 6 3 2 2 1 1 1 2 2 2 3 3 2 3 3 3 3 2 2 2 1 1 1 -0 -2 -2 -1 -0
2 2 2 2 2 2 2 2 3 3 4 3 2 2 2 2 2 2 2 2 3 3 3 3 4 4 4 4 3 2 2 2 2 0 -0 0 1 1
2 2 2 1 2 2 2 3 2 2 3 4 3 3 2 2 2 2 2 3 2 3 4 5 5 4 4 4 4 4 4 4 2 1 2 2 2 3
2 2 2 2 2 2 2 2 2 2 2 3 4 2 2 2 2 2 3 3 3 3 4 5 5 4 5 5 5 6 6 6 5 4 3 3 4 4
2 1 1 2 2 2 2 2 2 3 3 3 4 3 3 2 2 3 4 3 4 3 3 4 4 5 6 6 5 5 6 5 6 6 6 6 5 5
2 2 1 2 2 2 2 2 2 3 3 4 4 4 4 4 4 3 4 3 3 3 4 5 6 7 7 5 4 4 5 6 7 7 7 7 7 7
2 2 2 3 4 5 5 5 3 3 4 4 4 4 4 3 3 3 4 4 5 3 5 7 8 8 7 7 5 6 6 7 7 7 7 8 8 8
2 1 1 3 3 3 6 6 6 6 4 3 3 3 4 3 3 4 4 5 5 4 6 8 6 8 7 6 7 7 7 7 7 7 8 8 9 10
1 1 2 2 3 2 2 2 2 2 2 2 2 3 3 3 3 4 5 5 4 4 5 7 7 8 8 8 6 7 7 8 8 8 9 9 10 11
1 1 1 2 8 7 2 3 3 3 6 7 7 7 8 7 5 3 4 4 3 4 4 7 7 8 9 9 8 7 8 9 9 10 10 10 11 11
3 2 6 3 9 8 2 3 3 3 3 2 2 5 5 6 4 1 1 3 3 5 3 5 7 8 10 9 10 10 11 9 10 10 10 10 10 10
3 3 4 9 9 9 6 2 3 3 4 2 2 1 1 1 1 2 2 2 3 4 2 4 6 7 8 10 11 11 12 12 11 11 10 10 10 10
3 4 6 10 10 9 5 10 9 5 2 3 3 3 2 2 2 0 0 2 1 2 2 5 6 7 8 10 11 11 11 10 11 11 10 10 10 10
3 7 10 10 10 9 10 9 7 2 3 3 3 3 2 2 2 2 3 2 2 2 1 4 5 5 6 8 8 10 9 8 9 10 9 9 10 11
9 8 7 6 6 6 6 5 1 1 1 2 2 2 2 4 3 3 4 4 6 8 6 6 5 4 5 6 8 7 8 8 7 8 8 8 10 10
5 5 5 4 4 3 3 2 1 1 2 1 2 2 2 4 2 3 3 5 6 8 9 10 11 10 10 9 9 9 9 9 9 10 10 10 11 11
3 3 4 5 4 3 3 3 2 3 1 2 2 2 2 3 2 3 5 6 7 7 9 10 10 10 10 11 10 10 10 10 9 8 9 11 12 12
3 3 3 4 4 4 3 2 2 3 2 2 2 3 2 2 4 3 4 5 6 7 8 8 10 10 12 12 13 11 11 11 10 10 10 11 11 12
3 3 3 3 3 3 3 3 3 3 4 3 2 2 2 2 4 3 4 5 6 7 8 8 9 10 10 11 13 15 13 12 11 11 11 12 14 13
4 3 2 3 3 2 2 2 3 3 4 4 3 3 3 4 4 4 4 8 7 7 7 8 7 12 11 12 14 15 14 12 10 11 12 14 15 15
2 3 4 3 2 2 3 2 3 4 3 3 3 2 3 3 3 3 3 4 5 5 7 9 10 10 11 12 15 15 15 14 12 12 11 12 14 16
3 3 3 4 4 3 2 3 3 3 3 2 2 2 2 3 3 3 3 4 4 7 10 11 12 13 13 13 15 16 14 13 13 12 12 12 11 11

GFSNE_con_lsi_021.txt.gz
Lid_Strength_Index
3 4 4 3 2 2 3 3 4 7 6 3 3 1 0 0 -0 -0 0 2 2 3 3 3 2 2 1 1 0 0 -0 0 -0 -1 -1 -1 -0 0
2 3 3 3 3 3 3 3 4 5 6 3 2 2 1 1 -0 0 1 2 3 3 3 3 2 3 2 1 1 1 1 1 1 1 1 1 1 0
2 2 2 2 3 3 3 4 4 4 4 3 3 1 2 2 3 2 2 2 3 3 3 3 4 4 3 2 3 2 2 2 2 2 2 2 0 0
3 2 2 2 3 4 4 4 4 4 3 4 3 3 4 4 4 3 3 3 3 3 3 4 4 4 4 4 4 4 4 4 4 3 2 2 1 2
3 2 2 3 3 2 2 3 3 2 2 3 4 3 4 4 4 3 4 4 2 2 4 4 4 5 5 5 5 6 6 6 5 4 3 2 2 3
2 2 2 2 2 2 2 2 3 2 3 3 4 4 4 4 5 5 5 4 3 3 3 4 5 5 5 5 5 6 7 7 6 5 5 5 5 5
2 2 2 2 2 3 3 3 3 3 3 4 5 5 5 5 5 4 5 4 4 4 5 5 5 5 6 5 4 4 5 5 6 6 6 7 8 8
2 2 2 3 4 5 4 4 3 3 3 4 4 4 4 4 4 5 5 5 7 4 6 7 6 8 7 6 5 5 6 6 7 7 8 9 9 9
2 2 2 3 3 3 6 5 5 6 4 3 4 4 5 4 4 5 5 5 6 6 6 9 7 7 7 6 6 6 7 8 8 9 9 9 9 10
2 2 3 3 3 3 3 3 3 3 3 2 3 3 3 3 4 4 5 5 6 7 7 7 7 9 9 8 7 8 9 9 9 9 9 9 10 10
2 2 2 3 9 8 3 4 4 4 7 8 8 8 9 8 5 4 5 6 7 6 7 9 9 10 10 11 10 8 9 9 9 9 9 9 9 9
3 3 7 5 10 8 3 3 4 4 4 4 5 7 6 7 7 4 4 4 5 6 6 9 10 11 12 11 11 10 11 9 9 9 9 9 9 11
3 4 5 11 10 9 6 3 4 4 6 4 5 5 5 5 4 3 3 3 6 7 6 8 10 11 11 12 12 11 12 12 11 11 9 9 9 10
3 4 7 11 10 10 6 10 9 7 4 5 5 5 4 4 4 4 3 3 4 4 5 7 9 9 10 12 12 12 12 12 12 12 12 10 10 10
3 6 11 13 12 10 11 10 7 3 4 4 4 5 4 3 2 2 3 3 4 3 4 6 7 8 8 9 10 11 12 11 11 12 12 13 12 12
8 7 8 8 9 9 8 6 2 3 3 4 4 4 3 3 3 3 4 4 5 5 7 6 6 7 8 8 9 10 11 10 11 11 12 12 11 11
5 4 3 4 5 4 4 4 3 3 3 3 4 4 3 3 3 4 4 6 6 7 8 10 10 9 10 8 9 9 10 10 10 11 11 11 10 10
4 3 3 3 4 3 3 4 4 4 3 3 4 3 3 3 3 4 5 5 6 7 8 11 11 11 11 12 9 9 10 10 10 10 11 11 10 10
5 4 3 4 3 3 2 3 3 3 3 2 3 3 3 3 5 4 4 5 6 6 8 11 11 9 10 8 11 11 10 11 11 12 11 11 11 11
4 4 4 4 3 3 3 3 3 4 3 3 3 3 3 3 4 4 3 4 5 6 8 9 11 11 7 7 9 13 13 12 12 12 13 15 14 13
5 4 4 4 3 3 3 3 3 3 2 2 3 3 2 2 3 3 3 7 7 6 6 6 7 12 12 13 13 14 14 12 11 11 13 14 13 13
4 4 3 4 3 3 3 3 3 4 3 3 2 2 2 2 3 3 3 3 4 4 5 6 11 12 13 12 10 14 15 16 13 11 11 11 11 13
3 3 3 3 3 2 3 3 2 2 2 3 3 3 3 3 3 3 3 3 3 5 5 10 13 13 13 12 13 17 16 16 15 14 12 12 12 12

GFSNE_con_lsi_024.txt.gz
Lid_Strength_Index
2 2 2 1 1 1 1 2 3 6 5 3 2 -0 -0 -1 -1 -1 -0 2 2 3 3 2 2 2 1 0 0 0 -1 -1 -1 -0 -0 -1 -1 0
1 2 2 1 1 1 1 1 2 3 5 2 2 1 -0 -0 -1 -1 -1 2 3 3 3 3 3 2 2 1 2 1 0 1 0 0 0 0 1 1
1 1 1 1 1 1 1 2 2 2 4 3 1 1 2 2 1 0 1 2 3 3 2 3 3 3 3 3 2 1 1 1 2 2 2 1 0 -0
1 1 2 1 1 1 1 2 2 1 2 4 2 3 3 2 3 3 3 2 2 3 3 3 4 4 4 4 3 3 4 4 3 3 1 1 0 1
1 1 1 1 2 2 2 2 2 1 1 3 4 3 3 3 4 3 3 3 3 2 4 4 4 4 4 4 4 5 6 6 6 3 2 2 2 3
1 1 1 1 2 2 2 2 2 2 2 4 4 4 4 4 4 4 4 3 3 3 3 4 3 5 5 5 5 5 7 6 5 5 5 5 5 5
1 1 1 1 2 2 1 1 2 2 3 4 4 5 5 5 5 5 5 4 4 4 4 4 4 5 5 5 4 5 5 5 6 6 7 7 7 7
2 2 2 3 4 5 4 4 2 2 3 4 5 5 5 5 5 5 5 5 6 4 5 7 5 7 5 3 4 5 6 7 7 7 8 8 8 8
2 2 2 3 3 3 5 5 6 5 4 3 4 4 5 4 5 5 5 5 6 5 5 8 7 6 5 5 6 7 7 7 8 8 8 8 8 9
2 2 3 3 3 2 2 2 2 2 2 2 3 3 3 3 3 4 4 5 6 6 4 7 7 7 6 6 7 8 8 9 9 8 8 9 9 9
2 2 2 3 9 7 2 3 4 5 7 8 8 9 9 8 5 4 5 5 6 5 5 4 6 7 7 7 6 8 8 9 9 8 8 8 9 9
3 3 7 5 10 8 3 4 4 4 4 4 5 6 6 7 6 3 3 5 4 4 4 4 7 7 7 7 7 7 7 8 9 9 9 8 9 8
3 4 5 10 10 10 7 3 4 4 5 4 4 4 4 3 3 3 2 2 3 2 3 5 7 7 6 7 7 7 7 7 7 8 9 9 10 9
3 4 7 11 11 11 6 11 9 6 4 4 4 4 4 3 2 1 1 0 1 1 3 3 5 6 6 7 7 7 7 7 7 8 8 9 10 10
3 8 12 12 12 10 11 10 8 3 3 3 4 3 2 1 1 1 1 1 2 2 4 3 4 5 5 5 5 7 8 7 7 8 8 8 9 9
8 7 9 9 9 8 6 3 2 3 3 3 2 2 2 1 1 1 2 2 2 2 3 3 3 4 4 5 5 5 7 6 7 8 8 8 9 9
6 4 3 4 4 4 3 2 2 2 2 2 2 2 1 1 1 0 1 2 2 2 3 4 5 4 4 4 5 5 5 6 6 7 8 9 8 8
3 3 3 3 4 4 2 2 2 3 2 2 2 1 1 1 1 1 1 1 2 2 3 4 6 6 5 5 5 4 4 4 5 6 7 8 8 7
3 3 3 3 3 2 2 2 2 1 1 1 2 2 1 1 2 2 1 2 2 2 2 4 6 4 4 4 4 10 5 5 5 6 7 7 8 8
2 3 2 2 2 2 1 2 1 1 1 1 1 1 1 1 2 2 2 2 2 2 2 4 6 5 4 3 3 6 14 7 7 6 7 11 12 13
2 2 2 2 2 1 2 2 1 1 1 1 1 1 1 1 2 1 1 7 5 2 3 2 2 10 5 7 7 6 10 13 9 7 10 11 11 10
2 2 2 2 2 2 2 2 2 2 2 1 1 1 1 1 1 1 1 2 2 2 2 1 5 7 7 7 5 4 8 11 12 11 11 10 10 10
2 2 2 2 1 1 1 1 1 1 1 1 1 1 1 1 1 1 1 1 2 2 2 2 6 8 7 7 7 5 8 11 11 11 11 12 12 12

GFSNE_con_lsi_027.txt.gz
Lid_Strength_Index
0 0 1 0 0 1 1 2 3 6 5 2 2 -0 -1 -1 -1 -2 -2 2 1 2 3 3 2 2 1 2 1 -0 -0 -1 -1 -1 -1 -0 -0 -1
0 1 1 0 0 1 0 1 1 2 5 1 1 0 -1 -1 -1 -1 -1 1 2 2 3 3 3 3 2 1 1 1 1 0 0 0 0 -0 -1 -1
0 1 1 0 1 1 1 1 1 1 3 2 1 0 0 0 -0 -1 -0 0 2 3 3 3 3 3 2 2 2 2 2 1 1 1 1 0 -0 -1
1 1 1 1 1 0 1 1 1 1 2 3 2 2 2 0 1 1 2 2 2 3 3 3 4 4 4 4 4 3 3 3 3 3 1 0 1 1
1 1 1 1 1 1 1 1 1 1 1 2 3 3 2 2 3 2 3 2 2 2 4 4 4 4 4 5 5 5 5 5 6 4 2 2 2 2
0 0 0 1 1 1 1 1 1 1 2 2 3 4 3 3 3 4 4 3 3 2 3 3 4 5 5 5 4 5 6 6 5 5 5 5 5 4
1 0 0 1 2 1 1 1 1 2 2 3 4 4 4 4 5 4 4 3 3 3 3 3 3 3 4 4 4 5 6 5 6 6 6 6 6 6
1 1 0 2 3 5 4 3 1 2 2 3 4 4 4 5 4 4 4 5 6 3 4 6 4 4 3 2 6 5 5 6 6 7 7 7 7 7
1 1 1 1 2 1 6 5 5 5 3 2 4 4 5 4 4 4 4 3 5 4 5 8 6 6 2 2 5 6 7 7 7 7 7 7 8 8
1 1 1 1 0 0 1 1 1 2 1 1 2 2 3 3 3 3 3 4 5 4 3 7 6 2 1 1 7 7 7 8 8 8 8 8 8 9
2 2 2 2 8 7 1 2 3 4 7 8 8 8 9 8 5 4 5 4 6 5 3 3 2 2 2 1 2 7 8 8 8 8 8 8 9 9
2 3 7 5 10 8 1 3 5 5 4 4 4 6 6 7 6 2 3 4 3 4 1 1 2 2 3 2 2 3 4 8 8 8 8 8 9 7
3 4 5 11 10 9 6 3 5 4 5 4 3 4 3 2 3 1 1 2 1 1 1 0 2 2 2 4 3 3 3 4 5 6 9 9 9 9
3 4 7 11 11 10 6 10 9 5 3 3 4 4 3 3 2 1 -1 -1 -2 -1 0 -0 1 2 2 3 3 3 3 3 4 4 4 7 10 10
2 7 12 12 11 10 11 10 8 2 2 3 2 2 2 1 -1 -1 -2 -2 -1 -0 0 -0 0 1 1 1 1 2 3 3 3 4 4 4 5 6
8 6 8 8 7 5 5 3 1 1 1 1 1 1 -0 0 0 -0 0 0 1 0 0 -0 -0 0 1 1 1 1 2 2 3 3 3 3 4 4
4 3 2 3 3 2 1 1 0 0 1 1 1 1 1 1 1 -0 0 0 1 1 1 1 -0 -1 0 1 1 1 1 1 1 2 3 3 3 3
3 3 3 2 2 2 1 1 1 1 1 0 1 1 1 1 1 0 0 1 1 1 1 0 0 1 2 1 3 1 0 1 -0 0 1 3 2 1
2 2 3 2 2 1 1 1 1 1 -0 0 0 1 1 1 1 1 1 1 1 1 1 0 1 1 3 4 0 7 1 0 0 1 1 2 2 1
2 2 2 1 1 1 1 1 1 0 0 0 0 0 0 1 1 1 1 1 1 1 1 1 1 1 2 3 2 0 11 1 0 1 1 2 4 14
2 2 1 1 1 1 1 1 0 1 1 0 0 0 0 1 1 1 1 6 5 1 2 2 0 8 -1 -1 2 2 0 13 8 2 2 3 4 5
1 1 1 1 1 1 1 1 1 1 1 1 1 0 0 0 1 1 1 1 1 1 1 0 -0 -0 1 2 2 2 1 1 11 12 11 9 5 6
1 1 1 0 0 0 0 1 1 1 0 0 0 0 0 1 0 1 1 1 1 1 1 1 1 1 2 2 4 2 1 1 2 4 5 12 12 11

GFSNE_con_lsi_030.txt.gz
Lid_Strength_Index
-0 0 0 -0 0 0 1 1 3 6 5 3 1 -1 -2 -2 -1 -2 -2 1 1 3 3 2 2 1 2 1 1 0 -1 -1 -1 -1 -1 -0 0 -1
0 0 0 -0 0 1 0 1 1 3 5 1 1 -0 -1 -1 -1 -2 -1 0 2 3 2 3 3 2 2 2 1 1 0 1 0 -0 0 0 -1 -1
0 0 0 -0 0 0 0 0 1 1 3 2 1 -0 -0 -0 -1 -1 -1 -1 1 3 3 3 3 3 3 2 2 2 2 2 1 1 0 -0 -0 -1
1 0 1 0 0 -0 -0 0 0 0 1 3 2 2 1 -0 -0 -0 -0 -0 1 2 4 4 4 4 4 3 3 3 3 3 2 2 2 1 0 -0
0 1 1 0 1 1 0 1 1 0 1 2 3 2 2 0 1 1 1 2 2 2 4 4 4 4 5 4 5 5 5 5 4 4 2 2 1 1
0 0 0 0 0 1 1 1 0 1 1 2 3 3 3 2 2 3 4 3 3 2 3 4 4 5 5 5 4 5 6 6 5 5 4 4 4 3
0 0 -0 0 2 1 1 1 1 2 2 3 3 3 4 4 4 4 4 3 3 2 2 2 2 2 3 4 3 5 6 5 5 5 5 6 6 5
1 0 0 1 2 4 4 4 1 1 2 3 3 4 4 4 4 4 4 4 5 2 4 4 2 3 2 2 5 7 5 6 6 6 6 6 6 7
1 1 1 1 1 0 5 5 5 6 2 1 3 3 3 3 3 3 3 3 4 4 3 6 3 4 3 5 7 6 6 7 7 6 7 7 7 7
1 1 1 1 1 0 1 1 0 0 -0 0 1 1 2 2 1 3 2 4 3 4 3 7 4 2 1 1 6 6 7 7 7 7 7 7 8 8
1 0 0 1 7 7 1 2 2 3 6 6 7 8 9 8 4 2 4 5 6 5 3 5 4 2 -0 0 1 6 7 7 7 7 7 7 8 9
2 1 6 3 10 7 1 1 3 3 3 4 5 7 5 6 6 3 4 5 4 5 1 2 1 1 2 -0 -1 1 2 7 7 8 8 8 9 6
3 3 4 10 10 9 5 1 3 3 5 3 4 4 4 3 2 2 2 2 2 2 -0 -0 1 1 1 1 -0 -0 -0 2 3 6 9 9 9 8
3 3 7 11 10 9 6 10 10 6 3 4 4 4 4 3 2 0 -1 -1 -2 -1 -2 -2 0 1 1 1 2 0 0 0 1 2 2 6 9 10
2 9 12 12 12 10 11 10 9 3 3 4 4 3 2 1 -0 0 -2 -2 -2 -2 -1 -2 -1 -1 0 1 1 1 1 1 0 1 1 1 2 4
7 6 7 6 7 6 5 6 1 2 2 2 2 1 0 0 0 -0 0 -0 0 0 -1 -2 -2 -1 0 0 0 1 0 1 -0 0 1 0 0 1
3 1 1 2 2 2 2 2 0 1 1 1 1 1 1 1 0 -0 0 0 1 1 1 -0 -2 -2 -1 -1 1 0 0 0 -0 -0 -0 0 -0 -1
2 2 2 2 2 1 2 1 1 1 1 1 1 1 1 1 1 0 -0 0 1 1 1 0 0 0 0 -0 1 1 0 0 -0 -0 -0 1 1 -1
2 2 2 2 2 2 1 1 1 1 -0 0 0 0 1 0 1 1 1 1 1 1 0 0 1 1 3 3 0 4 1 0 0 0 0 0 1 0
2 2 1 1 1 1 1 1 1 0 0 0 0 0 0 1 1 1 1 1 1 1 1 1 1 1 2 2 2 0 10 0 0 1 1 -0 0 9
1 2 1 1 1 1 0 0 0 0 0 0 0 0 0 0 1 1 1 5 4 1 2 1 0 8 -1 -0 2 1 -0 8 3 0 0 1 1 1
1 1 1 0 0 0 0 0 0 1 0 0 0 0 0 0 1 1 1 1 1 1 1 0 -0 -0 0 1 2 2 1 -0 9 11 11 8 1 3
0 0 0 0 0 0 0 0 0 0 0 0 0 0 0 1 0 0 0 1 1 1 1 1 1 0 1 1 3 2 1 1 1 2 4 11 11 11

GFSNE_con_lsi_033.txt.gz
Lid_Strength_Index
-0 0 0 1 0 1 1 1 3 5 5 2 2 -0 -1 -2 -1 -2 -1 1 1 2 3 3 2 2 1 1 1 0 0 -0 -1 -1 -1 -0 -0 -0
0 1 0 1 0 0 1 1 1 2 5 2 2 0 -1 -1 -1 -2 -2 0 2 3 3 3 3 3 2 2 2 1 0 0 0 -0 -0 -0 -1 -2
0 1 1 0 1 1 1 1 2 2 4 3 1 -0 0 -0 -0 -1 -1 -1 1 3 3 3 4 3 3 3 2 2 1 1 1 1 0 -0 -1 -1
1 1 1 1 0 0 1 1 1 1 2 4 2 1 1 -0 0 0 -0 -1 -0 3 3 4 4 4 4 4 3 3 3 3 3 2 1 0 -0 -1
1 1 1 1 1 0 1 1 1 1 1 2 3 1 1 0 1 1 1 1 2 2 4 4 4 4 4 4 4 4 4 5 4 3 2 2 1 0
0 1 0 1 1 1 1 1 1 1 2 2 3 2 2 1 2 3 3 3 3 3 3 3 3 4 5 5 4 4 5 6 6 5 4 4 3 3
1 0 -0 0 2 1 0 1 1 2 2 3 3 3 3 3 3 3 3 4 3 3 3 2 2 2 2 3 3 4 6 6 6 5 5 5 5 5
1 1 0 1 3 6 5 4 1 2 2 3 3 4 3 3 3 3 4 4 5 2 3 3 1 2 1 1 5 7 7 6 5 5 6 6 6 6
1 1 1 1 1 0 5 6 5 5 2 1 3 3 3 3 3 3 3 3 4 3 3 5 2 3 3 5 7 7 6 6 6 6 6 6 7 7
1 1 1 1 1 1 1 1 1 1 0 0 0 1 1 2 2 3 2 3 3 3 3 6 3 4 3 2 7 7 6 7 7 6 6 7 7 8
1 1 1 1 6 7 1 2 2 2 6 7 7 8 9 8 4 2 3 4 5 5 3 4 3 3 3 1 1 6 6 7 6 6 6 7 8 8
1 1 8 2 8 7 1 1 2 3 2 2 3 4 4 6 6 2 3 4 5 5 3 3 2 2 3 -0 -0 1 2 6 7 7 7 7 8 6
3 2 1 10 9 8 5 1 3 2 4 3 3 3 3 3 2 2 2 3 4 3 2 1 1 1 2 2 0 -1 0 1 2 4 8 8 9 8
2 2 6 10 10 8 5 10 9 5 3 4 4 4 4 3 3 3 3 0 -0 -1 -1 -1 1 1 2 2 2 0 -0 -1 1 1 2 6 9 9
2 7 11 12 11 9 10 10 7 3 3 4 5 4 3 3 2 1 0 -1 -2 -2 -1 -2 -0 0 1 1 2 1 1 0 -1 -0 -0 0 2 5
8 6 7 7 8 7 6 5 2 2 3 4 4 3 3 2 1 0 1 0 1 1 -1 -2 -2 -1 1 1 1 1 1 1 -0 -0 -0 -1 -1 -1
4 3 3 3 4 4 4 3 2 2 2 2 2 2 1 1 1 0 1 1 1 1 1 -0 -2 -2 -1 -0 1 1 1 1 0 -0 0 1 -0 -1
2 2 2 2 2 2 2 2 1 2 1 1 1 1 1 1 1 1 0 1 1 1 1 1 0 1 1 -0 1 1 1 1 0 0 0 1 1 -0
2 2 2 2 2 2 2 2 2 1 1 1 1 1 1 1 1 1 1 1 1 1 1 0 1 1 3 4 1 3 1 1 1 1 0 1 1 1
2 2 2 1 1 1 1 2 1 1 1 1 1 1 1 1 1 1 1 1 1 1 1 1 1 1 2 3 2 1 9 1 1 1 1 0 1 8
1 1 1 1 1 1 1 1 1 1 1 1 1 1 0 1 1 1 1 5 4 1 2 2 1 7 -0 -0 2 2 0 9 3 1 1 1 2 2
1 1 1 1 1 1 1 1 1 1 1 0 0 0 0 0 1 1 1 1 1 1 1 1 -0 0 1 2 2 2 1 0 5 7 8 6 2 3
1 1 1 0 0 0 1 1 1 1 1 0 0 0 0 1 0 0 1 1 1 1 1 1 1 0 1 1 3 2 2 1 1 1 1 10 10 9

GFSNE_con_lsi_036.txt.gz
Lid_Strength_Index
1 1 2 1 1 1 2 2 4 7 6 3 3 0 -0 -0 -0 -0 -0 1 2 2 3 3 2 2 1 1 1 0 0 0 1 -0 -1 -0 0 0
1 1 1 1 1 1 1 2 2 4 6 3 2 1 0 -0 -1 -0 0 1 2 2 3 3 3 2 2 2 1 1 1 1 0 0 -0 -0 -0 -1
1 1 2 1 2 1 1 1 2 3 4 3 2 1 1 1 0 1 -0 1 2 2 3 4 4 3 3 3 2 2 1 1 1 1 1 0 -1 -1
2 2 2 1 2 1 1 2 2 2 3 4 2 2 1 1 0 0 0 0 1 3 4 4 4 4 4 4 3 3 3 3 2 2 1 1 -0 -1
1 1 2 1 2 2 2 2 2 2 2 3 3 2 1 1 1 1 2 2 2 3 4 4 4 4 4 4 4 4 4 4 5 3 2 1 0 0
1 1 1 1 2 2 2 2 2 2 2 3 3 3 2 2 1 2 3 2 3 2 3 3 4 4 5 4 4 4 5 6 5 5 4 4 3 2
1 1 1 1 2 1 1 2 2 2 3 3 3 3 3 3 3 3 4 4 3 2 3 2 2 2 3 3 3 3 5 6 6 6 5 5 5 4
2 1 1 3 4 5 4 3 2 2 3 3 3 4 4 3 3 3 4 5 5 2 3 3 2 2 2 2 4 6 7 7 6 5 5 6 6 6
2 1 1 1 1 1 6 5 5 5 3 1 3 3 3 3 3 4 3 3 4 3 3 4 2 3 3 4 6 7 8 7 6 6 6 6 6 7
1 1 1 1 1 1 1 1 1 1 1 1 1 2 2 2 2 2 3 3 3 3 3 5 3 4 5 4 7 7 7 7 6 6 6 6 7 7
2 2 1 1 7 7 1 2 3 4 7 7 6 7 8 7 4 2 4 4 5 4 4 5 5 5 4 4 6 6 6 6 6 6 6 6 7 8
1 2 8 4 8 7 1 2 3 3 2 3 4 6 5 6 6 3 3 4 5 5 4 5 4 4 5 3 3 5 5 6 6 7 7 7 8 7
2 2 4 10 9 8 5 2 4 3 4 2 3 3 3 2 3 2 2 3 4 5 4 3 3 3 3 3 2 2 3 3 5 6 8 8 8 8
2 3 6 11 10 9 6 10 9 5 3 3 3 4 4 3 3 3 3 3 2 2 3 3 3 2 3 3 3 1 2 2 3 3 4 6 8 9
2 9 11 11 11 10 10 10 7 3 4 4 4 4 3 3 3 3 3 2 1 1 2 1 1 1 2 2 3 3 2 1 1 3 2 3 5 7
8 5 7 8 7 7 6 5 3 3 4 4 4 3 3 3 3 3 3 2 2 1 0 -0 0 0 2 2 2 2 2 3 2 1 1 1 2 3
5 4 4 4 5 4 3 3 3 3 3 3 4 4 3 3 2 1 1 1 3 3 2 1 0 1 0 1 3 2 2 2 2 2 3 3 2 2
3 4 4 4 4 4 4 3 3 3 3 3 3 3 3 2 2 1 1 2 3 2 2 1 2 2 2 1 2 2 2 2 2 1 1 2 2 2
2 3 3 3 2 2 2 2 3 2 1 2 2 2 2 2 3 2 2 2 2 2 2 2 2 2 4 5 2 4 2 1 1 2 2 2 2 1
2 2 2 2 2 2 2 2 2 1 1 1 1 1 1 2 2 2 2 2 2 2 2 2 2 2 3 4 3 1 8 2 2 2 2 2 3 5
2 2 2 2 2 1 1 1 1 1 1 1 1 1 1 2 2 2 2 5 4 2 3 3 2 7 1 1 3 3 1 10 4 1 2 2 2 2
1 2 1 1 1 1 1 1 1 2 1 1 1 1 1 1 2 2 2 2 2 2 2 2 1 1 2 2 3 3 2 2 7 9 7 5 3 4
1 1 1 1 1 1 1 1 1 1 1 1 1 1 1 2 1 1 2 2 2 2 2 2 2 2 2 2 5 3 3 2 2 2 2 9 9 9

GFSNE_con_lsi_042.txt.gz
Lid_Strength_Index
3 3 4 3 3 3 3 4 5 7 6 4 3 2 1 0 1 -0 0 1 2 3 2 2 2 2 1 1 1 0 0 0 0 -0 0 -1 -1 -0
3 3 3 3 3 3 3 3 4 5 6 4 3 2 1 1 -0 -0 0 1 2 3 2 2 3 3 3 2 2 1 1 1 1 1 -0 -0 -0 0
3 3 3 2 3 3 3 4 4 4 5 4 3 2 1 1 1 1 0 1 2 3 2 3 4 4 3 3 3 2 1 2 2 1 1 0 1 0
3 3 2 1 2 3 4 4 4 3 4 5 3 2 1 1 1 1 1 1 2 3 3 4 5 5 4 4 4 3 3 3 2 2 2 1 1 -0
2 2 2 2 2 3 4 4 4 2 2 3 3 2 1 1 2 2 2 2 2 2 4 5 5 5 4 4 4 4 5 5 4 4 3 2 1 -1
2 2 1 2 3 3 3 3 3 3 2 3 3 3 3 2 2 3 3 2 3 2 3 4 4 5 4 4 4 4 5 5 6 6 5 4 3 2
2 2 1 1 3 3 3 3 3 3 3 3 3 3 3 3 3 2 3 2 3 3 3 3 2 2 3 4 2 3 5 6 6 6 6 5 5 4
3 3 2 2 4 5 4 4 2 2 3 3 4 4 3 3 2 3 2 3 4 2 3 3 2 3 3 3 5 6 6 6 7 6 6 5 5 5
3 2 1 1 3 3 7 6 6 5 4 4 3 3 3 3 2 2 2 3 4 3 2 4 3 3 3 3 7 7 7 7 7 7 6 6 6 7
2 1 1 2 3 3 3 3 3 3 3 3 3 2 2 2 1 1 3 3 2 3 2 4 3 5 3 5 7 7 8 8 8 7 6 6 7 7
2 2 1 3 9 8 3 4 5 5 7 6 6 7 7 6 4 2 3 3 4 4 4 4 5 5 4 5 5 7 8 8 8 6 6 6 6 7
4 4 7 5 10 9 3 4 4 4 3 3 4 6 5 5 6 2 2 3 5 5 4 5 5 5 6 5 5 5 6 8 7 6 6 6 7 6
4 4 5 10 10 9 7 3 4 3 5 3 3 3 3 3 2 2 2 3 4 5 5 4 5 5 6 6 5 5 5 6 5 6 7 7 7 7
4 4 7 11 10 9 6 10 9 5 2 3 3 3 3 3 2 2 2 2 3 3 3 4 5 5 5 6 6 6 6 5 5 4 4 6 8 8
4 8 11 11 11 10 11 10 7 2 3 3 3 3 2 3 3 3 3 2 2 2 3 3 3 4 4 5 5 5 5 5 4 4 4 5 4 5
8 7 7 8 8 7 5 4 3 2 3 3 3 3 3 3 4 3 4 3 3 3 3 3 3 4 5 5 4 5 5 4 5 4 4 4 4 4
5 4 4 4 4 4 4 4 3 3 3 3 3 4 4 4 4 4 4 4 4 4 4 4 4 3 2 3 4 4 3 4 4 4 5 4 3 3
4 4 4 4 4 4 4 4 4 5 4 3 4 3 4 4 4 4 4 4 5 5 5 4 4 4 3 2 2 3 4 4 3 3 4 4 3 2
4 5 4 4 4 4 3 4 4 3 3 3 4 4 4 3 5 4 4 4 4 4 4 4 4 4 6 5 3 5 2 2 3 5 4 4 4 3
4 4 5 5 5 5 5 5 5 5 4 4 4 3 3 3 4 4 3 3 3 3 5 5 4 4 4 4 5 5 9 3 5 4 5 5 4 6
4 5 5 4 4 4 4 4 4 4 4 4 4 3 3 3 3 3 3 7 6 4 5 6 4 7 2 3 4 4 2 9 5 4 5 5 4 4
2 3 3 2 2 2 2 3 3 4 3 3 2 2 2 2 3 2 2 3 4 4 4 3 4 5 5 3 4 4 3 3 6 9 8 6 3 4
2 2 2 2 2 2 2 2 2 2 2 2 1 1 1 2 1 1 2 2 3 4 4 4 5 5 5 5 6 5 5 4 4 4 4 8 10 9

GFSNE_con_lsi_045.txt.gz
Lid_Strength_Index
3 4 4 4 3 4 5 5 5 7 7 5 4 2 1 1 0 1 1 1 1 2 2 2 2 2 1 1 1 0 0 -0 0 1 0 0 0 1
3 4 4 4 4 4 4 4 5 5 7 5 4 2 1 1 -0 1 1 0 2 3 2 2 3 3 2 2 2 1 1 1 1 1 1 1 0 -0
4 4 4 3 3 4 4 4 5 5 5 4 3 2 1 1 1 1 1 1 2 3 2 3 3 4 3 3 2 2 1 1 2 2 1 0 0 0
4 3 3 2 4 3 3 4 4 4 4 5 3 2 2 1 1 1 1 1 1 2 3 4 5 5 4 4 4 3 3 3 3 2 1 1 1 1
3 3 3 3 3 4 4 5 4 3 3 3 3 2 2 2 2 2 2 2 1 2 4 5 5 5 5 5 4 4 5 5 5 4 3 2 2 1
3 2 3 2 2 2 4 4 3 3 2 3 3 3 3 2 2 2 3 2 3 2 3 4 5 5 5 5 4 4 5 6 5 5 5 5 4 2
3 2 2 1 2 3 3 4 4 3 3 3 3 3 3 3 3 3 3 2 3 3 3 3 3 3 4 4 3 3 5 6 6 6 6 6 5 4
4 3 3 2 3 5 4 4 3 2 3 3 4 4 3 3 3 3 2 3 4 2 3 4 2 3 3 2 4 6 6 6 6 6 6 6 6 6
4 4 3 2 3 4 6 6 6 5 3 3 3 3 3 3 2 3 2 3 3 3 2 4 3 4 2 4 6 7 7 7 7 7 7 7 6 6
3 3 3 2 2 3 3 4 4 3 3 3 3 3 3 2 2 2 3 2 2 3 3 4 3 4 3 3 7 7 8 7 7 7 7 7 7 7
3 2 1 2 8 9 3 4 5 5 7 7 6 7 8 6 3 2 3 3 4 4 3 4 4 5 4 4 5 7 7 8 8 8 7 6 7 7
3 4 7 5 9 9 4 3 4 5 5 4 4 6 5 5 5 1 2 3 3 4 3 4 4 4 5 4 4 5 6 8 8 9 7 6 6 5
4 4 6 11 12 11 8 4 4 4 5 3 3 3 3 2 2 2 2 2 4 4 4 3 5 5 6 7 6 4 5 5 6 7 7 7 7 6
4 5 7 11 11 10 6 11 9 5 3 3 3 3 3 2 2 2 2 3 2 3 3 3 5 5 5 6 6 5 5 6 6 5 4 5 7 8
4 8 11 11 11 10 11 10 7 2 3 3 3 3 2 2 2 2 2 2 2 3 3 3 4 4 4 5 5 6 7 6 6 5 4 4 4 5
8 7 8 8 8 8 5 4 3 2 2 3 3 3 3 3 3 3 3 3 3 3 3 3 3 3 5 5 5 5 5 5 5 5 5 5 5 5
5 4 4 4 4 3 3 3 3 2 3 3 3 3 3 3 4 3 3 4 4 4 5 4 4 3 4 5 6 5 5 5 4 3 5 5 4 3
4 4 4 4 4 4 4 4 3 4 3 3 3 3 4 4 4 4 3 4 5 4 4 4 5 5 4 3 2 3 3 3 2 4 5 5 3 2
4 4 4 4 3 4 4 4 4 4 3 3 3 4 4 4 5 4 4 4 4 4 5 4 5 5 6 5 4 4 2 2 3 5 4 5 4 3
4 4 4 5 4 4 4 4 4 4 3 4 4 3 4 3 4 4 5 5 6 6 6 5 4 4 5 5 5 4 8 2 4 4 4 5 4 7
5 5 4 4 5 5 5 4 4 4 4 4 4 4 3 4 4 5 6 8 7 4 4 4 3 9 3 4 5 4 2 9 5 4 5 6 5 5
3 3 4 3 3 3 3 4 4 5 4 4 4 3 3 3 4 4 3 4 4 4 3 3 4 6 5 4 4 4 4 4 8 8 8 7 5 6
3 2 2 3 2 2 2 2 3 3 3 2 2 2 2 2 2 2 2 3 3 4 4 3 5 6 6 5 6 5 5 4 4 4 4 8 9 9